Temp
33 32 31 31 30 30 29 29 28 28 27 27 26 26 26 26 25 24 23 23 22 23 21 19 18 18 18 18 15 16 15 15 16 15 14 14 13 12 12 11 8 5 5 10 14 13 14 15 16 14 17 15 16 15 16 21 19 19 19 18 18 18 22
33 32 31 31 31 30 30 29 28 28 27 26 25 25 25 24 24 23 22 22 21 21 20 19 16 16 17 18 15 14 14 14 14 13 13 13 12 12 11 14 8 6 5 4 12 11 15 12 16 12 17 14 15 15 16 15 16 18 18 17 17 17 17
32 32 31 31 31 30 29 28 28 28 26 25 25 24 24 23 23 22 21 21 20 20 20 18 16 15 16 16 13 14 13 13 13 13 12 11 12 11 12 13 13 8 4 5 6 12 10 12 13 13 13 15 15 14 15 14 15 15 17 17 17 17 17
33 32 31 30 30 29 28 27 27 26 26 24 24 23 22 22 22 21 21 20 20 20 19 17 15 14 15 14 12 12 13 13 13 12 11 10 10 11 12 13 13 12 8 6 4 8 9 12 11 12 14 15 15 14 13 14 14 15 14 14 15 16 15
32 31 30 29 28 28 27 26 26 25 24 24 24 22 21 21 20 20 20 20 20 19 18 16 15 15 14 13 11 11 11 12 11 11 10 9 10 10 11 12 12 11 11 7 5 5 10 11 11 13 12 13 11 12 13 13 12 12 12 13 14 15 17
30 29 29 28 28 27 26 26 25 24 23 23 23 22 21 20 20 20 19 19 19 19 18 16 15 15 14 12 11 10 11 10 9 9 8 8 8 8 9 9 10 10 9 7 5 5 5 9 7 8 10 12 12 10 9 9 10 12 11 10 10 12 14
29 29 28 28 27 26 25 24 24 23 22 22 21 20 20 19 19 19 19 19 18 18 17 16 15 14 14 12 12 10 10 9 8 8 7 7 7 8 6 5 4 5 6 5 4 4 5 4 7 8 5 10 12 11 10 7 6 5 9 9 10 9 12
28 27 27 27 26 26 24 23 22 21 21 21 20 19 19 19 18 18 18 18 17 17 15 15 14 13 13 13 12 11 10 9 8 7 6 7 6 6 5 4 3 3 3 3 2 2 2 4 3 5 8 10 9 7 7 9 7 4 5 6 8 10 9
27 25 25 25 24 23 23 22 21 21 20 19 19 19 18 18 18 17 16 15 15 14 14 13 13 13 12 13 14 14 13 12 11 8 6 6 5 5 4 4 3 2 2 1 1 1 3 2 2 3 3 3 3 3 3 7 7 5 7 7 7 8 11
25 23 22 22 22 22 21 21 21 21 22 22 19 18 18 17 17 16 15 14 12 12 12 12 12 13 14 15 15 15 15 14 13 12 10 7 6 5 5 4 3 2 2 2 1 1 1 -0 -0 1 3 3 4 6 7 6 6 4 6 6 5 7 7
22 21 21 21 20 20 20 20 20 22 25 25 24 19 17 16 16 15 14 12 11 10 10 10 11 10 13 14 14 14 15 14 14 14 13 12 11 10 6 3 2 2 2 2 1 1 1 0 -0 1 3 3 4 6 6 5 6 5 5 3 1 -1 2
20 20 20 20 20 19 19 19 21 25 26 26 26 22 17 16 14 13 11 9 9 9 9 9 9 9 9 9 9 9 10 12 14 14 14 14 13 13 12 12 7 3 2 1 0 1 1 0 0 1 2 2 4 4 5 6 5 5 3 2 2 2 0
20 19 19 19 18 18 18 18 22 25 26 26 26 25 20 14 13 11 9 7 7 7 8 8 8 7 7 8 11 11 8 6 8 12 13 13 14 14 14 16 18 16 8 5 3 1 0 2 1 0 2 4 4 6 3 4 3 3 3 3 2 3 4
19 18 17 18 18 17 17 16 20 25 26 26 26 26 22 12 12 10 9 8 8 8 8 8 8 7 7 7 7 8 7 7 6 6 7 9 9 9 11 13 14 13 14 12 7 5 3 4 4 2 4 5 7 5 3 2 1 2 2 2 2 5 5
17 16 16 16 17 16 15 15 21 24 25 25 26 25 25 15 12 12 11 10 10 10 9 9 9 8 7 7 7 7 8 6 6 6 6 5 5 6 7 8 9 9 10 11 11 9 7 7 7 6 6 6 7 6 6 6 4 4 4 4 4 4 5
15 15 14 15 15 14 13 14 21 23 24 25 25 25 21 18 15 13 12 12 11 11 11 10 10 8 8 8 8 10 13 11 8 6 5 4 4 4 5 6 10 14 15 11 10 9 9 9 9 12 9 8 7 7 7 7 7 6 4 2 0 -1 3
13 13 13 13 13 12 12 12 18 23 23 24 24 23 18 15 13 13 12 12 12 12 12 11 11 11 10 10 9 11 16 18 14 7 6 5 5 5 4 4 6 14 18 18 18 17 17 18 17 18 17 17 18 12 9 6 3 2 3 0 -2 -1 0
12 13 13 12 11 11 11 10 14 20 22 23 23 22 16 12 11 11 11 10 10 10 10 11 14 14 11 10 10 14 17 18 16 11 9 6 5 4 4 4 5 4 8 16 18 18 18 18 18 19 19 19 18 17 15 6 1 3 3 0 -0 -2 -0
11 11 11 11 11 13 11 9 11 17 20 22 23 20 16 14 12 11 10 10 9 9 9 10 12 14 14 12 12 17 18 18 15 12 11 10 7 4 4 5 5 2 1 2 3 5 6 7 11 10 8 9 11 13 13 11 7 6 4 1 1 0 -0
11 10 10 10 9 10 10 8 8 11 18 20 21 22 17 12 11 10 10 9 8 7 8 9 8 11 14 17 18 18 18 18 18 12 11 10 8 5 4 6 5 4 3 2 2 2 3 3 4 3 2 1 2 4 6 6 6 6 5 3 2 2 1
9 8 8 8 9 7 8 8 7 9 16 18 19 20 19 13 11 11 10 9 8 8 7 7 7 7 11 14 16 17 18 17 18 17 12 10 8 8 9 10 4 5 7 3 2 2 2 2 2 1 1 1 0 1 1 2 3 3 4 3 1 1 0
7 7 6 6 7 6 6 7 9 6 12 16 18 19 20 15 12 12 10 9 7 8 8 7 7 6 9 11 15 16 17 18 18 18 15 13 16 16 16 11 9 6 5 4 3 1 1 1 0 -0 -0 0 1 1 2 1 1 2 2 3 3 2 -0
5 4 3 3 6 6 6 5 6 9 7 11 16 17 18 19 16 18 14 9 7 8 7 8 7 7 10 11 15 16 17 17 18 16 14 18 19 19 18 14 11 9 6 4 3 2 1 1 0 -0 -0 0 0 1 1 1 0 0 0 1 2 2 2
3 3 2 2 3 4 5 5 4 7 9 7 11 15 17 18 19 19 14 12 10 9 9 8 7 7 12 15 16 16 16 16 15 13 16 18 18 15 15 10 7 8 7 5 4 3 2 2 2 1 1 1 1 1 1 0 -1 -1 -2 -2 -4 -2 -3
2 2 2 2 2 2 3 4 3 2 6 8 8 12 14 15 16 16 15 13 12 11 10 11 14 15 15 16 16 16 15 14 14 15 14 13 12 12 5 2 0 1 2 3 3 3 3 3 2 2 2 2 1 -1 -5 -7 -9 -10 -9 -10 -10 -10 -7
0 0 0 1 1 0 0 1 1 1 2 5 7 8 10 13 12 12 13 12 12 13 13 13 15 13 13 12 11 10 9 8 8 10 11 11 10 5 4 1 -3 -5 -2 -2 -1 -0 0 0 -0 -1 1 -0 -1 -5 -6 -7 -8 -9 -10 -11 -11 -11 -9
-1 -1 -1 -1 -2 -3 -2 -2 -1 0 -0 -0 -0 1 3 4 4 7 8 7 8 9 10 10 11 10 11 11 11 11 11 10 10 8 7 5 2 1 3 3 -0 -2 -3 -3 -3 -3 -2 -2 -0 -1 -2 -6 -7 -8 -10 -8 -8 -11 -11 -12 -13 -12 -10
-2 -1 -1 -2 -3 -3 -4 -3 -3 -0 0 -1 -2 -1 -0 -0 -0 -1 -1 -1 1 3 4 5 7 8 8 7 7 7 7 7 6 5 3 1 -0 -1 1 3 5 4 -1 -2 -3 -4 -5 -5 -4 -4 -5 -8 -8 -9 -10 -9 -9 -11 -13 -12 -13 -14 -11
-1 -0 -3 -3 -3 -4 -4 -6 -3 -1 5 3 5 2 -0 -1 -1 -1 -1 1 3 2 1 1 0 -1 -0 -0 -0 0 0 1 0 -0 0 0 -0 -1 -3 -2 -1 -1 -3 -4 -5 -5 -5 -5 -7 -8 -10 -10 -13 -12 -11 -11 -12 -12 -13 -14 -14 -12 -12
4 3 1 1 1 0 -1 -2 -1 7 12 13 12 12 9 6 8 6 2 3 5 5 1 0 -1 -2 -3 -3 -3 -3 -3 -3 -3 -3 -3 -2 1 -0 -2 -3 -2 -2 -3 -5 -5 -5 -6 -7 -8 -8 -9 -10 -10 -13 -13 -10 -7 -13 -13 -14 -15 -15 -14
14 15 13 10 5 6 8 8 8 9 13 14 15 15 16 15 13 11 9 7 4 3 2 1 -0 -1 -2 -2 -2 -3 -3 -3 -3 -3 -3 -3 -2 -1 -1 -2 -4 -4 -4 -5 -5 -6 -6 -7 -7 -7 -8 -9 -10 -11 -13 -14 -12 -13 -15 -15 -15 -16 -15
15 15 15 14 12 11 9 9 9 9 13 14 15 15 14 15 15 15 14 11 10 3 2 2 1 -0 -1 -1 -2 -2 -1 -2 -2 -2 -2 -2 -3 -3 -2 -2 -4 -4 -5 -6 -7 -7 -8 -8 -8 -8 -9 -10 -11 -11 -13 -14 -15 -17 -17 -17 -18 -16 -15
12 13 13 14 14 15 14 12 12 12 13 12 12 12 10 11 11 9 8 8 3 0 0 1 1 1 0 -0 -1 -1 -1 -1 -1 -2 -2 -2 -2 -3 -4 -3 -3 -3 -5 -6 -6 -6 -7 -8 -8 -9 -10 -12 -12 -13 -14 -16 -16 -18 -18 -18 -18 -17 -16
6 7 6 7 8 9 10 10 9 9 7 8 8 8 6 4 3 8 9 6 2 -0 -2 -1 -2 -0 0 1 0 0 0 -0 -0 -0 -1 -2 -2 -2 -3 -4 -4 -5 -7 -8 -7 -7 -9 -10 -10 -11 -12 -14 -16 -17 -18 -17 -17 -19 -19 -20 -19 -18 -18
-4 1 3 2 2 3 4 3 3 3 3 3 2 3 5 7 2 -1 -2 -2 -4 -2 -1 -2 -2 -2 -2 -2 -2 -2 -1 -0 0 -0 -1 -2 -4 -6 -6 -7 -7 -7 -9 -10 -10 -10 -10 -11 -12 -13 -13 -14 -17 -19 -19 -19 -19 -19 -18 -19 -20 -20 -20
-6 -6 -1 2 2 3 3 3 3 2 2 5 7 7 6 0 -2 -3 -6 -7 -6 -7 -5 -4 -4 -3 -3 -2 -2 -3 -4 -6 -6 -6 -5 -6 -6 -7 -7 -9 -10 -10 -11 -11 -11 -11 -11 -11 -13 -13 -15 -17 -17 -18 -18 -19 -19 -19 -19 -19 -20 -19 -19
MSLP
1016.17 1016.69 1017.17 1017.73 1018.21 1018.61 1019.09 1019.49 1019.93 1020.33 1020.77 1021.09 1021.33 1021.61 1021.89 1022.17 1022.45 1022.85 1023.13 1023.53 1023.93 1024.25 1024.57 1024.89 1025.21 1025.49 1025.77 1026.05 1026.41 1026.69 1027.09 1027.21 1027.21 1027.29 1027.53 1027.89 1028.25 1028.57 1028.81 1029.13 1029.45 1029.65 1029.17 1028.97 1029.09 1029.33 1029.29 1029.25 1029.29 1029.37 1029.21 1029.21 1029.09 1029.05 1028.93 1028.81 1028.77 1028.77 1028.77 1028.65 1028.53 1028.37 1028.13
1015.65 1016.13 1016.65 1017.13 1017.57 1018.01 1018.49 1018.93 1019.29 1019.73 1020.17 1020.45 1020.81 1021.17 1021.53 1021.93 1022.13 1022.57 1022.93 1023.21 1023.61 1023.85 1024.17 1024.49 1024.81 1025.13 1025.41 1025.57 1025.97 1026.33 1026.69 1026.77 1026.89 1026.97 1027.25 1027.53 1027.85 1028.21 1028.53 1028.61 1029.13 1029.17 1029.21 1028.97 1028.85 1029.17 1028.93 1029.05 1028.93 1029.13 1028.93 1029.01 1028.85 1028.81 1028.77 1028.69 1028.65 1028.57 1028.53 1028.33 1028.17 1028.05 1027.89
1015.13 1015.65 1016.13 1016.57 1017.01 1017.49 1017.97 1018.37 1018.77 1019.17 1019.61 1019.93 1020.29 1020.69 1021.09 1021.53 1021.85 1022.17 1022.57 1022.77 1023.05 1023.37 1023.73 1024.17 1024.45 1024.73 1025.01 1025.29 1025.69 1026.01 1026.29 1026.41 1026.49 1026.61 1026.89 1027.21 1027.45 1027.85 1028.05 1028.33 1028.41 1028.81 1028.93 1028.77 1028.73 1028.69 1029.05 1028.81 1028.85 1028.73 1028.77 1028.77 1028.65 1028.57 1028.57 1028.57 1028.37 1028.29 1028.21 1028.05 1027.93 1027.77 1027.65
1014.69 1015.21 1015.61 1016.05 1016.57 1016.97 1017.41 1017.93 1018.33 1018.77 1019.13 1019.53 1019.93 1020.37 1020.73 1021.09 1021.45 1021.69 1022.01 1022.29 1022.57 1022.85 1023.17 1023.57 1024.01 1024.33 1024.61 1024.93 1025.37 1025.69 1025.97 1026.01 1026.13 1026.33 1026.57 1026.93 1027.21 1027.45 1027.73 1027.89 1028.09 1028.13 1028.29 1028.37 1028.53 1028.33 1028.69 1028.73 1028.69 1028.49 1028.37 1028.53 1028.53 1028.45 1028.41 1028.37 1028.21 1028.05 1027.93 1027.81 1027.73 1027.61 1027.45
1014.37 1014.81 1015.21 1015.61 1016.01 1016.53 1017.01 1017.41 1017.89 1018.37 1018.81 1019.21 1019.61 1020.05 1020.41 1020.73 1021.01 1021.29 1021.57 1021.85 1022.13 1022.37 1022.69 1023.05 1023.41 1023.77 1024.13 1024.57 1025.01 1025.37 1025.53 1025.61 1025.81 1025.97 1026.33 1026.65 1026.93 1027.17 1027.37 1027.57 1027.69 1027.85 1027.89 1028.01 1028.09 1028.21 1028.25 1028.49 1028.49 1028.25 1028.21 1028.21 1028.45 1028.33 1028.21 1028.13 1028.01 1027.89 1027.69 1027.57 1027.49 1027.37 1027.17
1014.09 1014.41 1014.85 1015.25 1015.65 1016.13 1016.61 1017.09 1017.53 1017.93 1018.37 1018.85 1019.29 1019.73 1020.09 1020.37 1020.61 1020.89 1021.21 1021.45 1021.73 1021.97 1022.25 1022.57 1022.89 1023.25 1023.65 1024.09 1024.45 1024.77 1024.93 1025.21 1025.41 1025.73 1026.05 1026.33 1026.65 1026.89 1027.09 1027.25 1027.41 1027.57 1027.73 1027.81 1027.93 1028.05 1028.37 1028.21 1028.49 1028.41 1028.05 1028.01 1028.13 1028.13 1028.09 1027.93 1027.77 1027.57 1027.45 1027.41 1027.25 1027.05 1026.93
1013.89 1014.25 1014.61 1015.01 1015.49 1015.93 1016.37 1016.85 1017.29 1017.73 1018.13 1018.57 1018.97 1019.33 1019.65 1019.97 1020.25 1020.57 1020.89 1021.13 1021.37 1021.61 1021.89 1022.17 1022.49 1022.81 1023.13 1023.53 1023.81 1024.17 1024.45 1024.77 1025.09 1025.37 1025.61 1025.89 1026.29 1026.53 1026.85 1027.05 1027.29 1027.49 1027.65 1027.81 1027.89 1027.97 1027.93 1028.25 1028.13 1028.13 1028.29 1027.85 1027.85 1027.77 1027.73 1027.73 1027.61 1027.45 1027.17 1027.17 1026.97 1026.77 1026.53
1013.65 1014.09 1014.53 1014.85 1015.29 1015.69 1016.21 1016.65 1017.09 1017.45 1017.85 1018.21 1018.57 1018.93 1019.21 1019.53 1019.89 1020.21 1020.53 1020.81 1021.05 1021.33 1021.57 1021.81 1022.13 1022.45 1022.73 1022.97 1023.25 1023.61 1023.97 1024.29 1024.65 1024.93 1025.29 1025.57 1025.93 1026.21 1026.57 1026.81 1027.13 1027.41 1027.61 1027.77 1027.85 1027.85 1028.01 1027.93 1028.09 1028.09 1027.77 1027.69 1027.69 1027.65 1027.41 1027.29 1027.33 1027.17 1026.97 1026.93 1026.69 1026.45 1026.29
1013.61 1014.09 1014.49 1014.89 1015.25 1015.65 1016.01 1016.37 1016.65 1017.01 1017.37 1017.81 1018.21 1018.49 1018.81 1019.17 1019.53 1019.89 1020.25 1020.53 1020.81 1021.05 1021.33 1021.61 1021.89 1022.13 1022.41 1022.61 1022.89 1023.13 1023.45 1023.73 1023.97 1024.41 1024.85 1025.17 1025.53 1025.89 1026.21 1026.49 1026.85 1027.13 1027.41 1027.57 1027.65 1027.73 1027.57 1027.77 1027.81 1027.69 1027.85 1027.85 1027.65 1027.45 1027.09 1027.05 1027.01 1026.69 1026.45 1026.41 1026.25 1025.97 1025.85
1013.65 1014.01 1014.37 1014.73 1015.09 1015.45 1015.77 1016.01 1016.29 1016.57 1016.89 1017.25 1017.65 1018.13 1018.53 1018.93 1019.29 1019.61 1019.93 1020.29 1020.61 1020.89 1021.13 1021.37 1021.61 1021.85 1022.05 1022.25 1022.49 1022.77 1023.01 1023.25 1023.49 1023.69 1024.01 1024.45 1024.93 1025.37 1025.77 1026.09 1026.45 1026.73 1026.93 1027.09 1027.21 1027.09 1027.25 1027.49 1027.21 1027.21 1027.25 1027.21 1026.97 1026.85 1026.73 1026.69 1026.61 1026.49 1026.05 1026.13 1025.89 1025.61 1025.49
1013.69 1013.97 1014.25 1014.53 1014.81 1015.17 1015.45 1015.73 1015.97 1016.21 1016.45 1016.81 1017.29 1017.81 1018.29 1018.65 1019.01 1019.33 1019.69 1020.01 1020.29 1020.61 1020.89 1021.17 1021.41 1021.65 1021.81 1022.01 1022.25 1022.45 1022.57 1022.81 1023.05 1023.25 1023.45 1023.81 1024.13 1024.49 1025.01 1025.57 1025.89 1026.09 1026.29 1026.53 1026.49 1026.45 1026.73 1026.65 1026.69 1026.49 1026.57 1026.57 1026.45 1026.37 1026.33 1026.21 1026.17 1026.05 1025.89 1025.93 1025.93 1025.81 1025.17
1013.53 1013.81 1014.13 1014.41 1014.69 1014.97 1015.17 1015.49 1015.73 1015.85 1016.09 1016.45 1016.81 1017.41 1018.05 1018.45 1018.85 1019.17 1019.49 1019.81 1020.09 1020.37 1020.65 1020.93 1021.25 1021.49 1021.73 1021.85 1022.01 1022.21 1022.37 1022.45 1022.57 1022.77 1023.01 1023.25 1023.53 1023.85 1024.13 1024.37 1024.81 1025.29 1025.69 1025.85 1026.05 1025.97 1025.85 1026.05 1025.85 1025.89 1026.05 1026.01 1025.97 1025.93 1025.89 1025.73 1025.77 1025.65 1025.61 1025.57 1025.45 1025.13 1025.17
1013.57 1013.85 1014.09 1014.33 1014.61 1014.89 1015.13 1015.45 1015.57 1015.69 1015.89 1016.17 1016.45 1016.81 1017.61 1018.25 1018.61 1019.01 1019.37 1019.65 1019.93 1020.21 1020.45 1020.73 1021.01 1021.29 1021.53 1021.69 1021.81 1021.93 1022.17 1022.37 1022.45 1022.45 1022.57 1022.73 1023.01 1023.21 1023.41 1023.45 1023.41 1023.69 1024.25 1024.61 1024.89 1025.01 1025.17 1025.05 1025.21 1025.45 1025.21 1025.25 1025.41 1025.41 1025.49 1025.45 1025.45 1025.33 1025.29 1025.09 1024.97 1024.65 1024.61
1013.65 1013.89 1014.09 1014.25 1014.49 1014.81 1015.17 1015.49 1015.57 1015.57 1015.73 1015.97 1016.17 1016.41 1016.93 1017.93 1018.25 1018.65 1019.01 1019.33 1019.61 1019.89 1020.17 1020.41 1020.65 1020.93 1021.17 1021.37 1021.53 1021.61 1021.77 1021.97 1022.17 1022.37 1022.53 1022.53 1022.65 1022.77 1022.89 1022.97 1022.93 1023.05 1023.09 1023.33 1023.77 1024.01 1023.97 1023.93 1024.57 1024.41 1024.37 1024.65 1024.81 1024.93 1024.97 1025.09 1025.01 1025.05 1024.97 1024.81 1024.45 1024.25 1024.25
1013.69 1013.89 1014.13 1014.33 1014.57 1014.89 1015.21 1015.53 1015.53 1015.49 1015.61 1015.77 1015.93 1016.13 1016.29 1017.29 1017.93 1018.21 1018.53 1018.81 1019.05 1019.33 1019.61 1019.89 1020.13 1020.37 1020.57 1020.77 1020.97 1021.05 1021.25 1021.45 1021.65 1021.89 1022.13 1022.29 1022.37 1022.37 1022.41 1022.49 1022.57 1022.61 1022.57 1022.61 1022.61 1022.81 1023.05 1023.21 1023.49 1023.57 1023.77 1024.05 1024.21 1024.17 1024.17 1024.21 1024.25 1024.25 1024.13 1024.05 1024.05 1024.13 1024.05
1013.77 1013.97 1014.21 1014.41 1014.65 1014.97 1015.25 1015.53 1015.41 1015.41 1015.49 1015.61 1015.73 1015.89 1016.17 1016.49 1017.13 1017.61 1017.89 1018.17 1018.49 1018.77 1018.97 1019.21 1019.49 1019.77 1019.93 1020.05 1020.21 1020.29 1020.37 1020.53 1020.93 1021.29 1021.49 1021.69 1021.77 1021.93 1021.97 1021.93 1021.77 1021.73 1021.81 1022.01 1022.17 1022.17 1022.17 1022.25 1022.45 1022.53 1022.81 1023.09 1023.29 1023.37 1023.37 1023.53 1023.45 1023.61 1023.81 1024.01 1024.09 1023.81 1023.61
1013.89 1014.09 1014.33 1014.57 1014.81 1015.05 1015.29 1015.61 1015.45 1015.37 1015.41 1015.53 1015.61 1015.77 1016.01 1016.37 1016.69 1016.97 1017.25 1017.49 1017.77 1018.09 1018.33 1018.57 1018.77 1018.93 1019.13 1019.29 1019.41 1019.53 1019.53 1019.53 1019.93 1020.49 1020.69 1020.85 1021.05 1021.13 1021.33 1021.29 1021.21 1021.09 1020.97 1020.97 1020.93 1020.85 1020.89 1020.97 1021.05 1021.09 1021.17 1021.25 1021.33 1021.61 1022.05 1022.53 1023.01 1023.09 1023.33 1023.69 1023.49 1023.05 1023.25
1014.09 1014.25 1014.45 1014.69 1014.93 1015.13 1015.37 1015.65 1015.69 1015.45 1015.37 1015.41 1015.45 1015.57 1015.93 1016.29 1016.57 1016.77 1016.97 1017.21 1017.45 1017.65 1017.81 1017.89 1018.05 1018.21 1018.45 1018.61 1018.73 1018.81 1018.77 1018.77 1018.97 1019.17 1019.45 1019.89 1020.17 1020.33 1020.53 1020.49 1020.53 1020.93 1020.89 1020.65 1020.29 1020.05 1020.09 1020.09 1020.09 1020.05 1019.97 1020.01 1020.13 1020.29 1020.81 1021.69 1022.09 1021.97 1022.65 1022.65 1022.61 1022.53 1022.53
1014.21 1014.41 1014.61 1014.81 1015.01 1015.21 1015.49 1015.73 1015.81 1015.61 1015.37 1015.25 1015.29 1015.41 1015.69 1016.01 1016.29 1016.49 1016.73 1016.97 1017.17 1017.29 1017.45 1017.57 1017.57 1017.61 1017.77 1017.85 1017.97 1018.01 1018.05 1018.05 1018.25 1018.41 1018.49 1018.65 1019.09 1019.41 1019.57 1019.37 1019.81 1020.37 1020.73 1020.73 1020.73 1020.45 1020.29 1020.09 1020.01 1020.01 1020.21 1020.37 1020.37 1020.33 1020.41 1020.57 1020.85 1021.37 1021.77 1021.85 1021.85 1021.97 1022.13
1014.29 1014.49 1014.65 1014.81 1015.09 1015.25 1015.33 1015.61 1015.77 1015.77 1015.45 1015.25 1015.17 1015.17 1015.37 1015.73 1016.01 1016.09 1016.33 1016.53 1016.77 1016.97 1017.05 1017.17 1017.29 1017.25 1017.21 1017.13 1017.13 1017.21 1017.29 1017.29 1017.25 1017.49 1017.69 1017.93 1018.09 1018.33 1018.41 1018.49 1019.17 1019.49 1019.81 1019.97 1020.05 1020.01 1020.05 1019.97 1019.93 1020.09 1020.25 1020.37 1020.45 1020.41 1020.45 1020.49 1020.65 1020.81 1020.97 1021.09 1021.21 1021.29 1021.33
1014.29 1014.49 1014.65 1014.77 1014.93 1015.17 1015.25 1015.37 1015.57 1015.61 1015.41 1015.21 1015.09 1015.01 1015.01 1015.21 1015.41 1015.65 1015.93 1016.13 1016.25 1016.37 1016.53 1016.65 1016.77 1016.85 1016.93 1016.93 1016.81 1016.69 1016.57 1016.53 1016.49 1016.45 1016.77 1017.09 1017.17 1017.17 1017.21 1017.77 1018.41 1018.57 1018.77 1018.97 1019.17 1019.41 1019.53 1019.69 1019.77 1019.85 1019.93 1020.05 1020.13 1020.17 1020.21 1020.25 1020.21 1020.29 1020.41 1020.53 1020.77 1020.93 1020.93
1014.33 1014.45 1014.65 1014.73 1014.85 1014.97 1015.13 1015.21 1015.29 1015.53 1015.37 1015.09 1014.93 1014.81 1014.65 1014.73 1014.89 1015.13 1015.49 1015.57 1015.73 1015.85 1015.89 1016.05 1016.29 1016.45 1016.53 1016.61 1016.53 1016.37 1016.21 1016.01 1015.85 1015.69 1015.73 1015.93 1016.05 1016.13 1016.17 1016.41 1016.89 1017.49 1017.89 1018.13 1018.53 1018.85 1019.05 1019.17 1019.29 1019.45 1019.49 1019.49 1019.53 1019.57 1019.61 1019.69 1019.77 1019.81 1019.85 1019.93 1019.97 1020.13 1020.33
1014.41 1014.57 1014.65 1014.77 1014.77 1014.85 1014.97 1015.09 1015.21 1015.25 1015.37 1015.17 1014.81 1014.57 1014.41 1014.21 1014.33 1014.45 1014.57 1014.89 1015.01 1015.09 1015.29 1015.45 1015.69 1015.85 1016.01 1016.09 1015.97 1015.81 1015.61 1015.45 1015.25 1015.17 1015.29 1015.21 1015.13 1015.13 1015.21 1015.57 1015.97 1016.41 1016.89 1017.29 1017.65 1018.05 1018.21 1018.33 1018.57 1018.77 1018.81 1018.85 1018.89 1018.85 1018.93 1019.05 1019.17 1019.29 1019.41 1019.53 1019.61 1019.65 1019.69
1014.57 1014.73 1014.85 1014.89 1014.85 1014.77 1014.77 1014.85 1015.05 1015.05 1014.97 1015.05 1014.89 1014.53 1014.25 1014.01 1013.81 1013.73 1013.85 1014.01 1014.13 1014.37 1014.65 1014.89 1015.09 1015.33 1015.37 1015.33 1015.21 1015.09 1014.97 1014.81 1014.73 1014.77 1014.65 1014.57 1014.53 1014.69 1014.89 1015.17 1015.45 1015.61 1015.89 1016.37 1016.81 1017.05 1017.17 1017.33 1017.53 1017.81 1018.01 1018.05 1018.09 1018.21 1018.29 1018.41 1018.61 1018.89 1019.05 1019.21 1019.33 1019.41 1019.57
1014.37 1014.49 1014.57 1014.61 1014.61 1014.57 1014.57 1014.57 1014.69 1014.81 1014.73 1014.61 1014.61 1014.45 1014.21 1013.97 1013.77 1013.61 1013.53 1013.45 1013.41 1013.65 1013.81 1014.01 1014.17 1014.33 1014.37 1014.41 1014.33 1014.17 1014.17 1014.21 1014.29 1014.33 1014.45 1014.69 1014.89 1014.97 1015.21 1015.49 1015.57 1015.65 1015.77 1015.93 1016.05 1016.17 1016.33 1016.53 1016.69 1016.89 1017.01 1017.25 1017.49 1017.73 1018.05 1018.25 1018.57 1018.73 1018.93 1019.09 1019.21 1019.41 1019.53
1014.25 1014.21 1014.21 1014.21 1014.17 1014.21 1014.25 1014.25 1014.33 1014.37 1014.41 1014.41 1014.33 1014.33 1014.13 1013.85 1013.69 1013.61 1013.53 1013.41 1013.25 1013.21 1013.25 1013.33 1013.33 1013.45 1013.61 1013.81 1013.97 1014.13 1014.21 1014.25 1014.29 1014.37 1014.41 1014.53 1014.69 1014.93 1015.13 1015.33 1015.49 1015.61 1015.69 1015.81 1015.93 1016.01 1016.13 1016.25 1016.45 1016.61 1016.77 1016.97 1017.21 1017.61 1017.77 1017.93 1018.29 1018.65 1018.85 1019.05 1019.17 1019.29 1019.33
1014.09 1014.09 1014.01 1013.97 1013.97 1013.97 1013.97 1013.97 1014.01 1014.05 1014.09 1014.17 1014.29 1014.21 1014.09 1014.05 1014.01 1013.89 1013.81 1013.69 1013.45 1013.25 1013.13 1013.05 1013.13 1013.21 1013.29 1013.41 1013.45 1013.53 1013.61 1013.73 1013.85 1014.01 1014.13 1014.33 1014.53 1014.73 1014.93 1015.09 1015.21 1015.33 1015.49 1015.69 1015.81 1015.89 1016.01 1016.09 1016.21 1016.41 1016.69 1017.01 1017.17 1017.37 1017.69 1017.85 1018.01 1018.29 1018.49 1018.81 1019.05 1019.17 1019.09
1013.81 1013.81 1013.77 1013.81 1013.81 1013.77 1013.81 1013.81 1013.81 1013.77 1013.77 1013.81 1013.93 1013.97 1013.93 1013.97 1014.01 1014.01 1013.97 1013.85 1013.61 1013.37 1013.17 1013.13 1013.05 1013.09 1013.17 1013.25 1013.29 1013.33 1013.41 1013.45 1013.53 1013.73 1014.01 1014.21 1014.41 1014.53 1014.65 1014.73 1014.85 1014.97 1015.09 1015.21 1015.33 1015.53 1015.69 1015.89 1016.05 1016.17 1016.37 1016.81 1017.05 1017.21 1017.49 1017.73 1017.89 1018.09 1018.37 1018.65 1018.89 1018.97 1018.65
1013.49 1013.45 1013.45 1013.49 1013.53 1013.57 1013.57 1013.65 1013.57 1013.41 1013.33 1013.33 1013.25 1013.29 1013.45 1013.57 1013.57 1013.45 1013.41 1013.17 1013.01 1013.01 1013.01 1013.05 1013.13 1013.21 1013.29 1013.37 1013.37 1013.37 1013.41 1013.41 1013.57 1013.65 1013.73 1013.89 1014.01 1014.17 1014.33 1014.41 1014.53 1014.61 1014.77 1014.93 1015.13 1015.29 1015.41 1015.53 1015.73 1015.89 1016.17 1016.53 1016.85 1017.09 1017.29 1017.61 1017.77 1018.01 1018.21 1018.49 1018.69 1018.57 1018.53
1013.13 1013.09 1013.21 1013.21 1013.09 1013.17 1013.21 1013.21 1013.05 1012.97 1012.61 1012.25 1012.13 1012.01 1012.17 1012.25 1012.13 1012.21 1012.33 1012.33 1012.25 1012.29 1012.49 1012.53 1012.73 1012.77 1012.89 1012.97 1013.05 1013.09 1013.17 1013.21 1013.33 1013.41 1013.49 1013.49 1013.49 1013.65 1013.85 1013.97 1014.01 1014.09 1014.21 1014.57 1014.73 1014.85 1015.09 1015.29 1015.53 1015.73 1015.97 1016.21 1016.45 1016.89 1017.17 1017.29 1017.41 1017.69 1018.01 1018.21 1018.33 1018.45 1018.45
1012.45 1012.21 1012.13 1012.25 1012.37 1012.33 1012.25 1012.17 1012.13 1012.09 1011.77 1011.49 1011.29 1011.09 1010.73 1010.57 1010.73 1010.89 1011.13 1011.33 1011.65 1011.81 1011.77 1011.81 1011.93 1011.97 1012.17 1012.29 1012.41 1012.45 1012.45 1012.57 1012.73 1012.77 1012.89 1012.93 1013.01 1013.01 1013.13 1013.29 1013.57 1013.65 1013.89 1014.17 1014.37 1014.61 1014.77 1015.01 1015.25 1015.41 1015.69 1015.89 1016.17 1016.41 1016.81 1017.09 1017.17 1017.45 1017.73 1017.85 1018.09 1018.21 1018.25
1012.13 1011.93 1011.77 1011.61 1011.53 1011.37 1011.33 1011.37 1011.41 1011.41 1011.17 1010.89 1010.65 1010.45 1010.37 1010.29 1010.17 1010.05 1010.09 1010.41 1010.69 1010.97 1010.97 1010.97 1011.09 1011.21 1011.37 1011.57 1011.69 1011.61 1011.73 1011.89 1012.01 1012.05 1012.17 1012.25 1012.45 1012.45 1012.53 1012.65 1012.89 1013.09 1013.49 1013.77 1014.05 1014.29 1014.53 1014.81 1014.97 1015.17 1015.41 1015.65 1015.93 1016.21 1016.49 1016.77 1016.97 1017.21 1017.41 1017.69 1017.97 1018.01 1018.05
1012.33 1012.05 1011.85 1011.65 1011.45 1011.25 1011.01 1010.93 1010.93 1010.93 1010.85 1010.81 1010.73 1010.61 1010.65 1010.57 1010.45 1010.45 1010.49 1010.61 1010.77 1010.97 1010.93 1010.81 1010.65 1010.61 1010.65 1010.77 1010.85 1010.85 1011.01 1011.05 1011.17 1011.29 1011.41 1011.49 1011.57 1011.69 1011.85 1012.01 1012.17 1012.61 1013.01 1013.25 1013.49 1013.81 1014.09 1014.37 1014.65 1014.97 1015.25 1015.49 1015.73 1015.97 1016.21 1016.57 1016.77 1017.09 1017.33 1017.53 1017.65 1017.77 1017.85
1012.93 1012.77 1012.65 1012.45 1012.21 1011.97 1011.73 1011.65 1011.57 1011.49 1011.45 1011.33 1011.13 1011.09 1011.09 1011.13 1010.89 1010.57 1010.29 1010.33 1010.29 1010.41 1010.41 1010.41 1010.49 1010.37 1010.29 1010.21 1010.21 1010.25 1010.29 1010.33 1010.41 1010.53 1010.65 1010.77 1010.85 1010.93 1011.17 1011.49 1011.89 1012.29 1012.57 1012.93 1013.17 1013.41 1013.77 1014.09 1014.41 1014.73 1015.01 1015.29 1015.61 1015.85 1016.13 1016.41 1016.61 1016.97 1017.13 1017.29 1017.37 1017.41 1017.53
1012.93 1012.85 1012.77 1012.53 1012.37 1012.25 1012.13 1012.05 1011.89 1011.81 1011.69 1011.57 1011.49 1011.33 1010.89 1010.61 1010.53 1010.65 1010.65 1010.61 1010.57 1010.41 1010.17 1010.01 1009.89 1009.89 1009.89 1009.97 1009.97 1009.93 1009.89 1009.81 1009.81 1009.89 1010.01 1010.17 1010.37 1010.65 1010.89 1011.25 1011.57 1011.81 1012.25 1012.61 1012.97 1013.25 1013.57 1013.85 1014.13 1014.45 1014.73 1015.01 1015.37 1015.73 1015.97 1016.21 1016.53 1016.77 1016.89 1016.97 1017.13 1017.29 1017.33
1013.21 1012.97 1012.65 1012.45 1012.29 1012.17 1012.01 1011.85 1011.73 1011.61 1011.53 1011.25 1010.85 1010.57 1010.49 1010.45 1010.33 1010.37 1010.41 1010.45 1010.29 1010.29 1010.09 1010.05 1009.85 1009.77 1009.61 1009.61 1009.53 1009.53 1009.53 1009.53 1009.57 1009.65 1009.77 1009.93 1010.17 1010.41 1010.69 1011.21 1011.53 1011.81 1012.17 1012.53 1012.77 1013.01 1013.29 1013.65 1014.01 1014.29 1014.57 1014.93 1015.21 1015.37 1015.61 1015.97 1016.21 1016.41 1016.61 1016.77 1016.89 1017.01 1017.05
Wind_Speed
13 14 14 14 14 15 15 15 14 13 13 13 13 12 13 12 13 14 11 10 10 12 11 11 11 11 10 10 8 8 7 7 8 7 6 6 5 5 5 6 7 10 12 6 4 5 6 6 5 6 7 8 7 6 5 8 7 8 10 11 9 7 14
11 12 14 14 15 15 15 15 15 14 14 14 14 14 10 12 13 13 12 11 13 12 11 10 10 11 10 10 9 8 8 7 7 7 7 6 6 6 6 7 7 8 8 11 4 6 5 4 6 7 6 6 9 7 7 8 8 6 6 6 6 6 7
11 12 13 14 14 14 14 15 15 14 14 14 15 14 12 12 13 13 13 13 13 13 12 12 11 11 10 8 9 9 8 7 7 6 7 7 6 7 8 7 8 6 9 10 8 4 4 5 5 7 7 6 6 5 5 7 9 8 7 7 7 8 7
12 12 13 14 14 15 15 15 14 14 14 15 14 14 14 13 13 13 13 13 13 13 12 12 11 11 11 10 10 10 9 8 7 7 6 6 5 6 8 7 8 9 7 7 9 6 5 6 6 7 7 5 5 6 6 6 7 7 8 7 7 8 9
10 12 13 14 15 15 15 15 15 15 14 13 13 13 13 12 12 12 12 12 12 12 12 11 12 11 11 11 11 10 10 9 9 8 7 7 6 7 7 7 8 9 9 8 9 6 4 4 6 6 6 5 5 7 8 8 9 9 9 10 9 8 9
10 12 13 13 14 14 14 14 14 15 14 14 13 13 12 12 12 12 12 11 11 11 11 11 11 11 11 12 12 12 10 10 10 8 8 9 8 7 7 7 7 7 7 8 8 7 7 5 6 7 8 6 6 8 8 8 8 8 7 7 8 7 7
11 10 12 13 12 13 14 13 13 13 13 13 13 12 13 12 12 11 10 10 10 10 10 10 10 10 11 12 12 12 11 10 9 9 9 9 9 8 7 7 6 6 7 7 7 7 7 6 5 6 8 8 7 9 9 9 8 8 6 5 7 8 6
12 10 10 12 12 12 11 12 12 12 12 12 12 12 13 12 11 11 10 10 10 10 10 9 9 9 10 11 11 11 10 10 10 9 9 8 8 8 7 8 6 6 6 7 8 8 8 7 7 7 8 7 7 9 9 8 8 11 9 7 8 9 8
10 10 10 10 11 11 11 12 12 11 12 12 13 12 12 12 11 11 10 9 9 8 8 8 8 9 9 9 10 11 10 10 10 10 9 9 8 8 9 8 7 7 7 8 8 9 8 8 8 9 8 9 9 10 11 7 7 10 9 7 8 6 6
8 9 10 11 10 11 11 11 10 11 18 16 12 12 10 10 10 10 10 10 9 8 8 9 8 8 11 11 12 14 14 14 14 14 12 10 9 10 9 9 9 9 9 9 10 11 9 10 11 10 10 10 10 9 8 9 9 10 9 8 9 8 5
8 9 10 11 11 11 11 10 9 17 22 23 21 13 10 10 10 9 9 9 10 9 9 8 8 7 10 11 12 12 16 15 15 16 17 16 15 12 11 10 10 11 10 10 10 10 9 11 11 12 10 10 9 9 9 9 8 9 9 8 8 10 4
9 9 9 9 10 10 10 10 11 21 24 25 25 18 10 9 9 8 8 8 9 8 8 8 7 7 6 7 8 8 9 13 17 18 18 19 19 20 20 19 15 12 10 11 12 12 12 11 12 11 9 9 8 9 9 9 9 9 8 9 9 8 8
7 8 8 8 10 10 9 8 14 22 25 24 24 23 16 8 9 8 8 7 8 8 8 7 7 7 6 6 11 10 8 8 10 14 20 21 27 26 27 27 29 26 17 13 14 13 13 13 11 11 11 9 9 7 9 7 9 8 9 9 10 9 7
7 7 8 9 9 8 7 8 12 22 23 23 23 22 18 9 10 9 8 9 9 8 9 9 9 8 8 8 9 9 10 10 11 11 11 13 13 13 19 26 30 30 31 23 15 14 15 14 11 13 10 9 9 10 10 9 10 8 10 11 12 10 9
7 7 7 7 7 7 7 7 15 21 22 21 22 22 18 9 10 9 10 10 11 11 11 11 11 10 10 10 10 10 12 12 12 11 12 13 13 14 14 14 15 17 16 17 15 13 15 15 13 13 13 11 10 12 11 11 12 12 12 11 8 8 8
4 6 6 6 7 6 7 6 17 20 21 21 20 21 11 7 8 10 10 11 11 12 11 11 11 11 11 10 10 13 20 18 13 12 14 14 14 14 14 14 16 24 23 18 15 15 14 11 13 19 15 15 14 13 14 12 13 11 10 9 10 11 8
4 4 5 6 6 7 6 5 12 19 20 19 20 16 7 6 6 6 7 8 8 10 10 11 11 11 11 11 11 14 21 23 20 14 16 15 16 15 13 14 14 25 31 31 32 32 34 35 33 32 32 31 34 24 18 13 12 13 10 11 12 12 10
4 4 4 6 6 6 6 6 8 16 18 19 20 16 8 5 6 6 7 5 6 6 6 9 16 14 9 10 11 18 24 24 20 15 15 15 17 19 16 14 12 9 13 26 29 30 30 30 31 33 34 34 32 32 24 13 14 13 10 13 12 12 9
4 3 3 4 5 6 6 5 7 14 17 19 19 15 7 7 7 8 7 7 7 6 7 8 11 21 19 14 14 23 24 25 21 14 14 13 13 15 17 16 11 10 11 11 11 13 14 15 18 15 11 8 13 16 14 8 9 9 11 11 10 10 8
4 4 3 4 4 5 6 6 6 8 17 17 19 20 11 5 7 8 9 9 9 9 7 7 7 10 19 26 25 25 26 26 28 19 15 14 13 14 17 13 11 11 12 13 13 14 13 14 13 11 8 7 8 9 7 8 6 6 8 9 9 8 8
3 4 3 4 4 5 5 6 7 8 16 17 18 20 18 7 9 8 8 8 9 8 9 8 8 8 13 23 25 25 26 27 27 26 16 14 14 14 16 14 10 14 18 15 13 13 12 11 10 10 9 8 8 8 7 7 7 8 9 10 9 9 10
3 3 3 3 4 4 5 5 8 6 12 17 18 19 22 12 8 8 8 10 10 10 9 9 8 8 10 17 23 24 25 27 26 27 16 12 21 26 28 18 12 12 12 12 11 10 10 11 10 9 9 9 8 8 9 8 8 9 9 10 10 11 11
3 3 3 3 4 4 5 5 6 10 9 15 19 20 21 22 16 20 14 10 11 10 10 9 9 10 13 18 23 24 25 26 29 24 15 22 23 23 24 18 12 11 11 11 11 11 11 11 10 10 10 9 8 8 8 9 8 9 9 8 8 8 8
3 3 4 5 5 5 5 5 6 9 13 11 18 20 21 22 23 23 14 11 10 10 11 10 10 9 18 24 24 26 26 26 24 16 22 23 23 20 17 5 4 8 9 11 11 12 11 11 10 10 9 9 8 8 8 9 7 8 8 8 8 7 4
4 5 6 6 6 6 6 6 6 7 10 16 15 19 20 21 22 21 22 15 10 9 10 13 20 24 26 26 27 28 27 22 21 23 21 18 14 11 0 2 4 4 3 6 9 10 10 10 9 10 9 8 7 5 3 4 2 3 3 3 2 1 1
5 5 5 6 6 6 6 6 6 7 7 8 11 12 17 20 19 19 20 20 15 17 18 18 21 25 25 23 19 14 10 9 8 11 15 15 13 4 3 5 5 5 6 7 6 6 7 7 5 5 6 5 5 6 7 6 6 6 4 3 2 3 6
5 6 6 7 6 6 6 5 6 6 5 6 6 7 8 9 10 13 15 12 10 12 13 16 17 13 15 15 20 21 19 16 13 11 9 7 6 4 5 6 6 7 7 6 7 7 6 6 6 5 4 4 6 7 6 6 6 6 6 4 3 4 6
6 7 7 6 6 6 6 6 6 6 6 6 6 7 7 7 7 7 7 9 10 10 11 9 11 15 12 11 11 11 9 9 8 7 6 6 5 6 7 7 9 8 7 7 7 7 6 5 6 7 7 6 6 7 6 5 6 6 4 4 3 2 8
7 7 5 6 6 6 6 5 7 6 6 9 10 11 8 8 9 8 9 12 15 11 8 7 9 8 9 8 9 9 9 8 7 8 8 9 8 8 7 7 7 9 8 8 7 8 8 8 8 8 6 7 6 6 6 5 5 4 6 4 5 8 7
8 7 6 7 7 6 7 8 7 9 17 19 18 19 20 19 19 17 14 14 20 14 9 9 8 9 9 9 9 9 9 9 9 9 8 9 9 9 8 8 9 9 9 8 8 8 8 7 7 7 6 6 7 5 6 6 7 5 5 6 6 7 8
19 20 17 10 7 9 16 17 16 20 22 22 22 22 23 24 23 25 24 23 13 11 11 10 10 10 9 10 9 9 10 9 9 9 9 9 9 9 10 10 9 9 8 8 8 8 7 7 7 7 7 8 7 7 6 6 5 6 6 7 7 7 7
17 18 17 18 16 12 7 14 20 22 23 23 23 23 23 22 22 20 16 8 9 8 9 10 10 9 9 9 10 10 9 9 10 10 10 9 9 9 9 10 10 9 9 8 8 8 7 7 8 8 7 7 7 7 7 7 6 6 7 6 5 7 6
17 17 17 18 18 19 18 16 15 16 17 17 18 17 15 16 17 16 15 14 8 5 5 5 6 7 8 9 10 9 9 9 10 10 10 10 10 10 9 9 9 9 9 9 9 8 8 8 7 7 7 7 7 7 7 7 6 6 6 5 6 6 8
11 13 15 15 17 17 17 16 17 18 18 19 18 17 16 13 10 16 19 16 11 8 9 8 8 8 8 8 8 8 8 9 9 9 10 9 10 10 8 8 7 8 8 8 8 8 7 7 7 7 7 7 6 6 6 6 7 6 6 6 7 7 7
9 8 9 9 8 10 14 14 16 16 16 17 17 17 17 15 8 8 7 7 6 7 8 9 9 9 9 8 9 9 8 9 8 8 9 9 8 7 6 6 7 8 7 7 7 7 7 7 8 8 8 7 7 6 6 6 6 6 7 7 6 6 6
7 7 7 13 14 15 15 15 16 16 16 16 17 17 15 8 7 8 7 7 7 7 8 8 8 8 8 7 8 8 9 8 7 6 6 5 6 6 6 6 6 6 6 6 7 7 7 7 7 7 7 6 6 8 8 7 7 7 6 6 6 6 6
Wind_Direction
194 191 190 189 192 192 191 192 190 188 187 190 191 191 190 189 186 190 192 184 188 190 195 193 195 196 193 187 188 193 195 195 195 186 186 193 187 204 204 204 226 243 264 255 202 248 252 252 259 263 257 263 256 253 265 270 267 266 263 260 257 257 273
189 186 186 189 192 192 191 191 189 187 187 191 190 191 185 189 188 191 194 191 196 194 195 195 195 198 191 190 189 191 193 194 189 189 194 197 196 207 207 211 212 242 251 266 236 237 232 218 245 252 248 256 270 267 267 270 269 270 270 274 277 281 283
185 183 185 190 191 191 190 190 189 188 189 191 189 189 186 186 190 192 195 197 196 195 192 194 197 199 192 191 190 198 196 191 191 188 188 199 198 205 212 212 221 227 249 257 257 217 241 250 259 261 262 265 268 272 263 267 268 266 266 269 276 279 279
184 183 186 189 189 190 191 189 189 189 190 191 188 188 188 187 192 196 198 200 198 195 193 193 194 196 191 192 194 200 197 202 196 194 196 194 202 202 211 213 218 229 241 251 260 240 223 245 253 260 261 255 264 265 269 270 275 277 273 274 273 273 273
182 185 185 189 190 189 189 190 187 189 189 189 189 189 190 192 195 198 199 199 199 197 196 195 194 192 189 190 195 200 198 199 197 200 196 203 202 211 218 224 227 236 245 255 258 259 229 216 247 255 259 248 249 266 270 267 265 267 270 269 267 264 266
184 186 190 190 191 189 190 188 188 189 189 187 187 189 193 195 196 198 199 200 199 199 197 196 196 191 188 191 194 199 199 196 196 192 197 201 204 206 215 221 225 230 239 251 258 257 260 242 237 260 260 256 260 262 265 268 265 265 262 267 270 262 261
187 191 190 192 188 191 188 187 188 188 187 186 187 190 192 196 198 197 197 202 200 200 198 195 194 193 193 195 196 196 196 195 195 195 200 197 198 205 203 218 215 224 236 240 252 257 248 246 241 230 249 254 250 253 249 258 266 261 253 252 259 267 258
190 190 188 194 191 191 186 186 188 189 188 188 189 190 195 194 196 197 199 199 200 198 199 195 193 194 198 197 199 193 195 187 197 193 203 200 195 202 202 214 211 218 223 234 242 245 250 251 249 256 256 257 251 254 254 245 256 265 264 256 254 253 261
184 184 188 189 191 188 188 190 192 190 188 187 192 192 193 193 193 196 198 200 198 197 194 195 196 199 202 199 196 192 188 193 188 187 197 202 193 203 205 215 217 220 226 235 237 247 247 246 246 242 241 244 243 245 251 249 244 259 258 259 257 252 243
182 184 186 187 190 191 191 195 196 190 190 190 188 189 189 190 194 195 197 197 196 197 194 196 196 202 199 202 202 205 204 198 194 195 196 196 189 200 204 210 215 220 221 229 236 240 237 241 242 237 232 238 240 242 251 251 249 257 263 262 266 264 244
181 187 190 191 190 192 195 195 196 191 196 198 191 184 187 189 195 195 196 194 192 194 194 197 199 201 207 207 212 214 216 213 206 204 205 201 200 197 197 208 214 219 217 223 232 236 231 234 241 237 228 234 239 238 239 244 246 254 260 257 261 266 262
192 190 190 192 193 194 195 194 189 196 203 203 201 189 185 192 195 195 194 190 191 193 191 196 199 204 201 208 208 214 220 222 221 220 218 217 218 216 211 209 210 217 221 218 226 233 228 228 234 238 227 233 231 235 240 241 246 249 252 257 255 258 256
187 191 188 188 191 194 193 189 190 198 202 203 204 202 188 192 192 192 192 187 190 188 194 195 204 211 209 208 214 216 216 218 229 230 230 235 238 238 236 237 236 229 218 220 225 225 233 225 230 236 234 222 229 231 241 240 245 244 248 249 255 253 258
190 186 188 191 193 190 184 183 190 200 203 205 208 211 202 178 191 193 192 193 192 197 200 204 208 213 219 216 218 219 219 220 223 225 233 236 235 235 238 240 243 246 242 234 223 225 232 231 215 235 232 222 222 230 235 236 241 239 246 247 247 252 257
189 191 188 189 188 181 182 181 192 201 206 209 215 219 222 170 189 196 201 202 201 203 205 209 213 214 218 217 216 216 213 217 219 220 224 228 233 234 234 233 236 239 240 244 244 231 230 234 228 231 232 226 225 229 233 228 233 232 237 245 257 262 254
182 185 183 185 180 177 184 185 196 206 210 217 220 223 227 211 187 192 196 198 199 203 207 206 206 210 217 217 217 215 216 216 212 217 222 226 229 232 235 236 234 237 239 236 235 240 242 234 229 231 226 226 225 228 232 233 236 239 244 249 253 253 246
179 172 172 173 175 182 189 188 207 213 220 223 228 231 232 219 211 207 202 204 195 197 200 204 206 213 218 222 227 220 230 236 225 213 220 223 226 229 228 236 236 242 245 246 243 238 236 237 238 239 237 233 231 225 217 222 229 234 230 239 247 249 241
150 164 170 178 185 187 191 197 215 222 227 230 233 235 228 218 214 219 216 213 209 208 217 219 221 222 219 221 222 228 240 240 239 233 224 218 225 228 230 235 232 227 241 248 253 256 254 250 247 246 247 245 243 239 228 203 221 221 215 232 234 246 236
152 153 163 182 193 193 197 205 218 227 233 237 240 240 231 217 216 223 222 219 227 222 224 229 231 239 240 234 228 237 239 239 237 235 235 232 224 225 228 233 222 216 223 233 246 259 266 271 272 276 280 290 285 277 273 249 222 212 216 228 230 234 240
156 173 183 175 175 201 199 204 216 226 237 242 244 243 236 206 214 223 220 219 223 229 228 222 226 229 237 241 242 242 242 241 239 232 230 230 229 227 230 228 219 213 215 223 223 235 241 247 253 259 262 260 253 257 248 243 224 200 203 216 223 223 221
175 174 190 179 186 192 211 202 210 222 234 243 245 244 242 227 223 219 219 221 226 223 225 226 224 225 228 240 246 248 248 248 248 247 234 226 229 225 229 221 211 217 212 220 221 227 234 240 244 247 249 244 239 235 234 230 223 210 208 213 219 228 233
170 176 192 202 197 197 211 211 207 212 234 243 246 247 245 241 229 216 213 230 226 227 231 226 223 223 225 229 241 246 250 253 255 257 256 237 233 233 233 228 207 206 213 218 218 221 227 230 234 238 237 239 234 227 224 216 217 215 213 215 214 214 224
196 206 217 226 226 220 214 210 216 217 224 241 248 250 249 247 243 239 235 224 227 225 227 225 225 224 218 232 244 247 248 249 251 254 256 259 260 258 251 238 221 208 207 208 213 215 221 222 223 226 229 230 230 226 216 211 210 209 208 213 216 222 222
211 219 232 240 248 240 231 217 211 224 225 231 243 252 254 254 252 248 239 230 228 226 225 228 228 218 232 241 243 247 248 249 252 248 248 254 261 266 267 262 226 222 214 208 210 216 218 219 215 217 221 222 220 218 211 208 201 199 202 203 212 214 215
215 221 228 235 240 239 235 228 217 219 227 233 236 249 256 258 256 256 255 253 247 232 225 223 229 236 241 242 242 244 247 252 259 265 273 281 283 278 23 160 176 187 180 206 211 215 219 217 213 209 213 206 201 193 153 141 115 145 164 168 160 175 244
236 239 238 244 241 238 232 229 221 225 226 228 238 243 251 257 260 259 256 256 259 253 248 237 242 248 249 248 250 255 256 255 251 256 260 262 259 244 201 176 184 190 190 204 204 205 209 207 189 194 189 177 156 145 181 166 164 157 196 192 216 273 279
234 240 247 248 247 248 243 236 231 234 230 217 224 234 240 248 257 263 268 272 266 262 257 257 255 253 252 252 253 253 253 254 253 253 249 238 240 225 193 198 190 195 195 200 203 206 200 198 196 184 156 153 160 176 187 173 169 174 203 187 193 211 258
240 240 241 244 240 246 246 243 239 235 232 228 218 228 231 232 236 240 239 243 249 246 248 248 251 252 254 253 254 251 247 246 245 240 234 234 228 224 212 206 203 204 201 204 201 200 196 194 184 191 188 176 182 190 184 168 170 177 203 198 189 228 253
252 247 240 227 234 242 250 244 241 238 231 225 217 217 221 226 226 230 228 230 233 239 241 239 242 240 242 240 240 241 242 243 241 240 238 240 236 229 214 212 208 212 207 207 191 201 197 202 190 200 190 176 180 194 190 178 179 191 188 206 186 229 243
253 246 233 243 238 205 229 241 238 247 262 266 259 246 227 221 226 221 218 226 228 224 228 226 224 227 227 232 228 230 233 234 230 233 233 231 225 219 214 208 211 210 211 197 200 197 192 194 188 194 193 187 192 193 189 190 181 203 182 197 211 227 240
280 281 279 269 250 229 232 236 236 244 260 263 267 269 270 261 247 240 229 223 223 229 229 228 225 226 224 227 226 227 229 226 225 224 223 225 220 219 214 212 209 210 200 192 196 198 195 193 191 200 194 199 198 197 194 197 200 185 191 202 205 221 235
295 294 292 289 286 281 247 232 239 245 254 260 264 268 274 282 286 289 288 291 250 237 234 228 229 226 222 222 225 228 225 222 224 222 221 221 221 221 214 209 209 203 190 191 193 195 197 196 204 205 202 199 195 186 192 192 199 192 197 208 206 223 230
299 300 303 302 302 301 301 304 305 295 294 301 308 310 310 306 304 307 300 294 280 244 255 242 243 233 227 223 229 227 223 223 221 223 221 218 219 220 213 210 206 187 192 195 197 191 199 197 197 194 191 189 185 181 192 189 197 199 201 200 214 231 233
296 305 309 305 304 303 305 308 307 308 310 309 308 309 309 304 291 282 276 272 265 256 250 245 240 237 235 234 233 231 228 228 223 220 221 219 219 219 208 201 181 179 190 191 195 197 197 189 189 179 182 188 186 188 180 191 204 193 201 215 217 229 235
309 302 295 297 299 298 299 297 297 296 296 298 296 292 290 291 290 280 282 281 277 275 267 261 253 248 243 239 241 241 238 240 234 226 221 218 212 201 182 166 175 187 177 181 180 183 185 185 185 185 186 180 180 182 191 200 198 206 206 214 221 224 239
284 288 301 303 301 301 300 298 297 296 294 289 289 290 294 280 259 255 249 253 256 248 254 251 257 259 258 248 245 238 235 226 217 199 194 181 171 169 161 154 166 168 170 176 179 184 183 177 182 182 177 174 183 191 196 196 199 204 211 211 219 223 233